Regional Weather Roundup
Issued by NWS

Home | Current Version | Previous Version | Text Only | Print | Product List | Glossary On
Versions: 1 2 3 4 5 6 7 8 9 10 11 12 13 14 15 16 17 18 19 20 21 22 23 24 25 26 27 28 29 30 31 32 33 34 35 36 37 38 39 40 41 42 43 44 45 46 47 48 49 50
044
ASUS43 KLMK 250410
RWRKY
KENTUCKY REGIONAL WEATHER ROUNDUP
NATIONAL WEATHER SERVICE LOUISVILLE KY
1200 AM EDT SUN JUN 25 2017

NOTE "FAIR" INDICATES FEW OR NO CLOUDS BELOW 12,000 FEET
WITH NO SIGNIFICANT WEATHER AND/OR OBSTRUCTIONS TO VISIBILITY.

KYZ001>023-026-027-061>063-070>075-250500-
WESTERN AND SOUTH CENTRAL KENTUCKY

CITY           SKY/WX    TMP DP  RH WIND       PRES   REMARKS
PADUCAH        CLEAR     62  57  83 CALM      30.16R
HENDERSON      CLOUDY    60  57  89 SW3       30.17R
OWENSBORO      CLEAR     64  58  80 W3        30.17R
HOPKINSVILLE   CLEAR     66  54  65 CALM      30.17R
BOWLING GREEN  PTCLDY    69  56  62 NW5       30.15R
GLASGOW        PTCLDY    65  56  73 CALM      30.15R
$$

KYZ024-025-028>034-038-045-046-053-250500-
NORTH CENTRAL KENTUCKY

CITY           SKY/WX    TMP DP  RH WIND       PRES   REMARKS
LOUISVILLE/SDF MOCLDY    66  56  70 W8        30.13S
LOUISVILLE/LOU PTCLDY    68  56  65 W6        30.14R
FORT KNOX      PTCLDY    62  55  78 W5        30.14R
$$

KYZ035>037-039>044-047>052-055>060-089>105-250500-
NORTHEAST KENTUCKY

CITY           SKY/WX    TMP DP  RH WIND       PRES   REMARKS
LEXINGTON      PTCLDY    65  55  70 W6        30.13R
COVINGTON      CLOUDY    66  53  63 NW10      30.11R
FRANKFORT      CLEAR     67  54  63 W5        30.12R
$$

KYZ054-064>069-076>088-106>120-250500-
SOUTHEAST KENTUCKY

CITY           SKY/WX    TMP DP  RH WIND       PRES   REMARKS
JACKSON        MOCLDY    68  58  70 NW3       30.13R
LONDON         PTCLDY    67  57  70 NW5       30.14R
SOMERSET       PTCLDY    64  55  72 CALM      30.15S
MIDDLESBORO    CLEAR     65  60  85 W5        30.14S
MONTICELLO     PTCLDY    64  60  87 NW5       30.16R
$$





USA.gov is the U.S. government's official web portal to all federal, state and local government web resources and services.